BLY548 EGGD-EGHQ

Flight info

Callsign BLY548
Flight time 0h 32m
Altitude 8000
Route EXMOR DCT NQY
Aircraft A319/M-SDE3FGHIRWY/LB1

Departure

Time 2026-04-21 18:08
Airport Bristol Airport (EGGD)

Arrival

Time 2026-04-21 18:41
Airport Cornwall Airport Newquay (EGHQ)
Time Latitude Longitude Altitude Speed Heading
2026-04-21 17:45 51.38568 -2.71757 614 ft 0 kts 87°
2026-04-21 18:00 51.38568 -2.71758 614 ft 1 kts 87°
2026-04-21 18:00 51.38567 -2.71782 631 ft 3 kts 85°
2026-04-21 18:00 51.38565 -2.71814 622 ft 3 kts 85°
2026-04-21 18:00 51.38564 -2.71847 629 ft 3 kts 91°
2026-04-21 18:01 51.38566 -2.71877 627 ft 2 kts 109°
2026-04-21 18:01 51.38568 -2.71885 626 ft 1 kts 112°
2026-04-21 18:01 51.38559 -2.71867 629 ft 3 kts 140°
2026-04-21 18:01 51.38540 -2.71858 618 ft 3 kts 168°
2026-04-21 18:02 51.38521 -2.71855 614 ft 2 kts 176°
2026-04-21 18:02 51.38504 -2.71853 614 ft 3 kts 175°
2026-04-21 18:02 51.38484 -2.71850 614 ft 3 kts 175°
2026-04-21 18:02 51.38466 -2.71849 614 ft 1 kts 177°
2026-04-21 18:03 51.38464 -2.71849 614 ft 0 kts 177°
2026-04-21 18:04 51.38460 -2.71849 614 ft 3 kts 177°
2026-04-21 18:04 51.38429 -2.71881 619 ft 6 kts 255°
2026-04-21 18:05 51.38430 -2.71951 616 ft 7 kts 271°
2026-04-21 18:05 51.38430 -2.72031 614 ft 8 kts 268°
2026-04-21 18:05 51.38425 -2.72173 625 ft 14 kts 266°
2026-04-21 18:05 51.38419 -2.72335 615 ft 15 kts 266°
2026-04-21 18:06 51.38413 -2.72497 615 ft 15 kts 266°
2026-04-21 18:06 51.38406 -2.72658 615 ft 14 kts 266°
2026-04-21 18:06 51.38400 -2.72818 615 ft 14 kts 266°
2026-04-21 18:06 51.38394 -2.72975 621 ft 14 kts 266°
2026-04-21 18:07 51.38388 -2.73133 616 ft 14 kts 266°
2026-04-21 18:07 51.38372 -2.73284 620 ft 14 kts 239°
2026-04-21 18:07 51.38292 -2.73343 616 ft 13 kts 179°
2026-04-21 18:07 51.38221 -2.73281 623 ft 12 kts 111°
2026-04-21 18:08 51.38224 -2.73044 621 ft 46 kts 86°
2026-04-21 18:08 51.38259 -2.72138 617 ft 113 kts 86°
2026-04-21 18:08 51.38311 -2.70686 972 ft 134 kts 87°
2026-04-21 18:08 51.38358 -2.69212 1715 ft 131 kts 87°
2026-04-21 18:09 51.38401 -2.67761 2459 ft 132 kts 87°
2026-04-21 18:09 51.38449 -2.66201 2885 ft 151 kts 87°
2026-04-21 18:09 51.38503 -2.64402 3228 ft 173 kts 87°
2026-04-21 18:09 51.38566 -2.62371 3600 ft 194 kts 87°
2026-04-21 18:10 51.38637 -2.60050 4007 ft 220 kts 87°
2026-04-21 18:10 51.38703 -2.57522 4726 ft 233 kts 91°
2026-04-21 18:10 51.38340 -2.54967 5597 ft 242 kts 112°
2026-04-21 18:10 51.37330 -2.52788 5920 ft 250 kts 136°
2026-04-21 18:11 51.35767 -2.51515 6007 ft 259 kts 161°
2026-04-21 18:11 51.33939 -2.51487 6015 ft 271 kts 188°
2026-04-21 18:11 51.32225 -2.52841 6010 ft 284 kts 216°
2026-04-21 18:11 51.31071 -2.55434 6008 ft 294 kts 248°
2026-04-21 18:12 51.30742 -2.58709 6002 ft 297 kts 266°
2026-04-21 18:12 51.30622 -2.62002 5998 ft 297 kts 266°
2026-04-21 18:12 51.30515 -2.65300 6002 ft 297 kts 266°
2026-04-21 18:12 51.30409 -2.68600 6041 ft 300 kts 266°
2026-04-21 18:13 51.30297 -2.71933 6970 ft 300 kts 266°
2026-04-21 18:13 51.30183 -2.75271 7794 ft 303 kts 266°
2026-04-21 18:13 51.30065 -2.78622 8102 ft 302 kts 266°
2026-04-21 18:13 51.29935 -2.81972 8214 ft 302 kts 264°
2026-04-21 18:14 51.29465 -2.88625 8237 ft 301 kts 264°
2026-04-21 18:14 51.29306 -2.91964 8236 ft 301 kts 266°
2026-04-21 18:14 51.29237 -2.95311 8236 ft 302 kts 269°
2026-04-21 18:15 51.29234 -2.98666 8238 ft 302 kts 270°
2026-04-21 18:15 51.28968 -3.01974 8241 ft 300 kts 251°
2026-04-21 18:15 51.28182 -3.05044 8239 ft 298 kts 240°
2026-04-21 18:15 51.27177 -3.07939 8232 ft 298 kts 237°
2026-04-21 18:16 51.26118 -3.10782 8237 ft 298 kts 236°
2026-04-21 18:16 51.25073 -3.13641 8239 ft 298 kts 237°
2026-04-21 18:16 51.24063 -3.16532 8239 ft 299 kts 239°
2026-04-21 18:16 51.23085 -3.19461 8240 ft 299 kts 240°
2026-04-21 18:17 51.22122 -3.22446 8241 ft 299 kts 240°
2026-04-21 18:17 51.21195 -3.25375 8241 ft 299 kts 241°
2026-04-21 18:17 51.20248 -3.28377 8241 ft 299 kts 241°
2026-04-21 18:17 51.19322 -3.31304 8244 ft 299 kts 241°
2026-04-21 18:18 51.18374 -3.34305 8250 ft 299 kts 240°
2026-04-21 18:18 51.17340 -3.37172 8237 ft 298 kts 232°
2026-04-21 18:18 51.16159 -3.39884 8240 ft 298 kts 232°
2026-04-21 18:18 51.14976 -3.42591 8232 ft 298 kts 232°
2026-04-21 18:19 51.13789 -3.45299 8234 ft 298 kts 231°
2026-04-21 18:19 51.12602 -3.48007 8234 ft 298 kts 231°
2026-04-21 18:19 51.11416 -3.50710 8230 ft 298 kts 231°
2026-04-21 18:19 51.10229 -3.53413 8230 ft 298 kts 232°
2026-04-21 18:20 51.09045 -3.56110 8228 ft 298 kts 231°
2026-04-21 18:20 51.07859 -3.58811 8229 ft 298 kts 232°
2026-04-21 18:20 51.06675 -3.61512 8226 ft 298 kts 231°
2026-04-21 18:20 51.05488 -3.64210 8228 ft 298 kts 231°
2026-04-21 18:21 51.04298 -3.66909 8229 ft 298 kts 232°
2026-04-21 18:21 51.03111 -3.69595 8232 ft 297 kts 232°
2026-04-21 18:21 51.01924 -3.72285 8232 ft 297 kts 231°
2026-04-21 18:21 51.00735 -3.74976 8228 ft 298 kts 231°
2026-04-21 18:22 50.99544 -3.77670 8219 ft 298 kts 231°
2026-04-21 18:22 50.98356 -3.80354 8222 ft 297 kts 232°
2026-04-21 18:22 50.97166 -3.83037 8224 ft 297 kts 232°
2026-04-21 18:22 50.95975 -3.85714 8223 ft 297 kts 231°
2026-04-21 18:23 50.94783 -3.88392 8224 ft 297 kts 231°
2026-04-21 18:23 50.93592 -3.91069 8224 ft 297 kts 232°
2026-04-21 18:23 50.92401 -3.93744 8227 ft 297 kts 231°
2026-04-21 18:23 50.91210 -3.96416 8225 ft 297 kts 232°
2026-04-21 18:24 50.90017 -3.99088 8216 ft 297 kts 231°
2026-04-21 18:24 50.88823 -4.01760 8215 ft 297 kts 231°
2026-04-21 18:24 50.87632 -4.04425 8214 ft 297 kts 232°
2026-04-21 18:24 50.86422 -4.07127 8216 ft 297 kts 231°
2026-04-21 18:25 50.85240 -4.09763 8217 ft 297 kts 231°
2026-04-21 18:25 50.84033 -4.12456 8216 ft 297 kts 231°
2026-04-21 18:25 50.82838 -4.15117 8212 ft 297 kts 231°
2026-04-21 18:25 50.81641 -4.17783 8216 ft 297 kts 231°
2026-04-21 18:26 50.80448 -4.20438 8211 ft 297 kts 232°
2026-04-21 18:26 50.79254 -4.23098 8225 ft 297 kts 231°
2026-04-21 18:26 50.78057 -4.25761 8221 ft 297 kts 232°
2026-04-21 18:26 50.76863 -4.28415 8207 ft 296 kts 232°
2026-04-21 18:27 50.75675 -4.31044 8199 ft 294 kts 232°
2026-04-21 18:27 50.74486 -4.33670 8202 ft 294 kts 232°
2026-04-21 18:27 50.73293 -4.36303 8202 ft 295 kts 231°
2026-04-21 18:27 50.72098 -4.38940 8200 ft 295 kts 231°
2026-04-21 18:28 50.70906 -4.41572 8201 ft 294 kts 232°
2026-04-21 18:28 50.69720 -4.44190 8190 ft 293 kts 231°
2026-04-21 18:28 50.68528 -4.46809 8193 ft 294 kts 230°
2026-04-21 18:28 50.67328 -4.49442 8194 ft 297 kts 231°
2026-04-21 18:29 50.66126 -4.52078 8191 ft 295 kts 231°
2026-04-21 18:29 50.64929 -4.54700 8194 ft 294 kts 232°
2026-04-21 18:29 50.63739 -4.57311 8192 ft 295 kts 232°
2026-04-21 18:29 50.62530 -4.59965 8190 ft 295 kts 231°
2026-04-21 18:30 50.61344 -4.62566 8195 ft 296 kts 231°
2026-04-21 18:30 50.60131 -4.65220 8198 ft 295 kts 232°
2026-04-21 18:30 50.59339 -4.66948 8195 ft 293 kts 232°
2026-04-21 18:30 50.58146 -4.69544 8174 ft 293 kts 230°
2026-04-21 18:31 50.56954 -4.72131 8178 ft 293 kts 231°
2026-04-21 18:31 50.55755 -4.74735 8180 ft 294 kts 231°
2026-04-21 18:31 50.54557 -4.77340 8182 ft 294 kts 231°
2026-04-21 18:31 50.53363 -4.79941 8185 ft 294 kts 232°
2026-04-21 18:32 50.52165 -4.82545 8178 ft 294 kts 231°
2026-04-21 18:32 50.50967 -4.85144 8174 ft 295 kts 231°
2026-04-21 18:32 50.49763 -4.87750 8175 ft 294 kts 232°
2026-04-21 18:32 50.48560 -4.90349 8146 ft 293 kts 231°
2026-04-21 18:33 50.47346 -4.92967 7417 ft 303 kts 231°
2026-04-21 18:33 50.46099 -4.95661 6848 ft 303 kts 231°
2026-04-21 18:33 50.44986 -4.98382 6649 ft 290 kts 245°
2026-04-21 18:33 50.44526 -5.01355 6426 ft 275 kts 266°
2026-04-21 18:34 50.44701 -5.04346 5929 ft 277 kts 279°
2026-04-21 18:34 50.45002 -5.07348 5468 ft 279 kts 279°
2026-04-21 18:34 50.45304 -5.10407 5020 ft 281 kts 279°
2026-04-21 18:34 50.45598 -5.13448 4563 ft 283 kts 279°
2026-04-21 18:35 50.45891 -5.16511 4110 ft 285 kts 279°
2026-04-21 18:35 50.46184 -5.19595 3657 ft 287 kts 279°
2026-04-21 18:35 50.46539 -5.22708 3120 ft 290 kts 290°
2026-04-21 18:35 50.47601 -5.25211 2878 ft 267 kts 329°
2026-04-21 18:36 50.49183 -5.26140 2810 ft 227 kts 11°
2026-04-21 18:36 50.50552 -5.25481 2761 ft 193 kts 43°
2026-04-21 18:36 50.51444 -5.24108 2714 ft 171 kts 63°
2026-04-21 18:36 50.51883 -5.22509 2700 ft 150 kts 82°
2026-04-21 18:37 50.51908 -5.20968 2653 ft 136 kts 99°
2026-04-21 18:37 50.51588 -5.19585 2628 ft 135 kts 115°
2026-04-21 18:37 50.51116 -5.18326 2597 ft 133 kts 116°
2026-04-21 18:37 50.50649 -5.17076 2562 ft 133 kts 116°
2026-04-21 18:38 50.50183 -5.15827 2451 ft 132 kts 115°
2026-04-21 18:38 50.49721 -5.14591 2299 ft 131 kts 115°
2026-04-21 18:38 50.49260 -5.13358 2132 ft 131 kts 115°
2026-04-21 18:38 50.48791 -5.12104 1948 ft 135 kts 116°
2026-04-21 18:39 50.48314 -5.10830 1772 ft 136 kts 116°
2026-04-21 18:39 50.47835 -5.09552 1587 ft 136 kts 116°
2026-04-21 18:39 50.47348 -5.08252 1394 ft 134 kts 116°
2026-04-21 18:39 50.46884 -5.07017 1206 ft 132 kts 117°
2026-04-21 18:40 50.46424 -5.05789 1026 ft 128 kts 117°
2026-04-21 18:40 50.45971 -5.04581 846 ft 130 kts 118°
2026-04-21 18:40 50.45669 -5.03776 746 ft 127 kts 119°
2026-04-21 18:40 50.45071 -5.02182 488 ft 127 kts 118°
2026-04-21 18:41 50.44620 -5.00985 335 ft 127 kts 118°
2026-04-21 18:41 50.44226 -4.99925 339 ft 91 kts 120°
2026-04-21 18:41 50.44054 -4.99490 353 ft 3 kts 136°
2026-04-21 18:41 50.44052 -4.99486 353 ft 3 kts 133°
2026-04-21 18:42 50.44062 -4.99477 363 ft 3 kts 333°
2026-04-21 18:42 50.44113 -4.99495 352 ft 11 kts
2026-04-21 18:42 50.44196 -4.99488 353 ft 13 kts
2026-04-21 18:42 50.44280 -4.99526 359 ft 14 kts 303°
2026-04-21 18:43 50.44333 -4.99671 346 ft 17 kts 301°
2026-04-21 18:43 50.44394 -4.99839 342 ft 19 kts 300°
2026-04-21 18:43 50.44466 -5.00024 335 ft 21 kts 302°
2026-04-21 18:43 50.44539 -5.00223 330 ft 20 kts 299°
2026-04-21 18:44 50.44593 -5.00364 327 ft 9 kts 314°
2026-04-21 18:44 50.44617 -5.00335 328 ft 1 kts 81°
2026-04-21 18:44 50.44618 -5.00327 328 ft 1 kts 79°
2026-04-21 18:44 50.44620 -5.00319 327 ft 1 kts 77°
2026-04-21 18:45 50.44621 -5.00307 329 ft 1 kts 78°